Overview Statistics Trail Chart Weather Telemetry Raw packets
 

This is the latest recevied weather packets stored in our database for station/object SV1RVP-13. If no packets are shown the sender has not sent any weather packets the latest 10 day(s).

<< 3 4 5 6 7 8 9 >>
Time Temp. Humidity Pressure Rain* Wind** Luminosity Snow
1788609519 32.78° C 37% 1015.5 hPa 0 mm - - -
1788608919 32.78° C 37% 1015.5 hPa 0 mm - - -
1788608310 32.78° C 37% 1015.7 hPa 0 mm - - -
1788607712 32.78° C 36% 1015.5 hPa 0 mm - - -
1788607111 32.78° C 37% 1015.5 hPa 0 mm - - -
1788606511 32.22° C 37% 1015.7 hPa 0 mm - - -
1788605910 32.22° C 36% 1015.6 hPa 0 mm - - -
1788605333 32.22° C 37% 1015.9 hPa 0 mm - - -
1788604725 32.22° C 37% 1015.9 hPa 0 mm - - -
1788604125 32.22° C 35% 1015.9 hPa 0 mm - - -
1788603513 31.67° C 36% 1016 hPa 0 mm - - -
1788602916 32.22° C 36% 1016 hPa 0 mm - - -
1788602311 31.67° C 37% 1016.1 hPa 0 mm - - -
1788601727 31.67° C 36% 1016.1 hPa 0 mm - - -
1788601112 31.67° C 37% 1015.9 hPa 0 mm - - -
1788600524 31.67° C 37% 1016 hPa 0 mm - - -
1788599921 31.11° C 38% 1016.1 hPa 0 mm - - -
1788599313 31.11° C 39% 1016.1 hPa 0 mm - - -
1788598725 31.11° C 38% 1016.2 hPa 0 mm - - -
1788598127 31.11° C 39% 1016.2 hPa 0 mm - - -
1788597524 31.11° C 38% 1016.1 hPa 0 mm - - -
1788596919 31.11° C 39% 1016 hPa 0 mm - - -
1788596320 30.56° C 40% 1016.1 hPa 0 mm - - -
1788595717 30.56° C 41% 1016.1 hPa 0 mm - - -
1788595114 30° C 42% 1016 hPa 0 mm - - -

* Rain since midnight (hover to see other rain measurements)
** Current wind speed in m/s (hover to see current wind gust speed)